Regional Weather Roundup
Issued by NWS

Home | Current Version | Previous Version | Graphics & Text | Print | Product List | Glossary On
Versions: 1 2 3 4 5 6 7 8 9 10 11 12 13 14 15 16 17 18 19 20 21 22 23 24 25 26 27 28 29 30 31 32 33 34 35 36 37 38 39 40 41 42 43 44 45 46 47 48 49 50
974
ASUS43 KMPX 201901
RWRMN
WEATHER ROUNDUP FOR MINNESOTA
NATIONAL WEATHER SERVICE TWIN CITIES/CHANHASSEN MN
200 PM CDT WED SEP 20 2017


NOTE: "FAIR" INDICATES FEW OR NO CLOUDS BELOW 12,000 FEET WITH NO
SIGNIFICANT WEATHER AND/OR OBSTRUCTIONS TO VISIBILITY. N/A MEANS
CURRENT SKY AND/OR WEATHER CONDITIONS ARE NOT AVAILABLE.

MNZ060>063-068>070-202000-
   Twin Cities Metro

CITY           SKY/WX    TMP DP  RH WIND       PRES   REMARKS
TWIN CITIES    SUNNY     75  56  51 NW13G20   29.80R
ST PAUL        SUNNY     74  58  57 NW9       29.80R
CRYSTAL        SUNNY     73  52  47 NW9       29.79R
BLAINE         MOSUNNY   73  55  53 NW10      29.80R
LAKEVILLE      SUNNY     72  55  56 W8G17     29.81R
EDEN PRAIRIE   SUNNY     73  54  51 W8        29.81R
SOUTH ST PAUL  SUNNY     74  54  49 W8        29.80R
LAKE ELMO      FAIR      73  55  53 W13       29.81R
$$
MNZ001>005-007-008-013>017-022>024-027-028-202000-
   Northwest Minnesota

CITY           SKY/WX    TMP DP  RH WIND       PRES   REMARKS
BEMIDJI        SUNNY     65  43  44 SW15      29.78R
HALLOCK        CLOUDY    70  36  28 W13G21    29.67R
ROSEAU         MOSUNNY   66  46  48 W10G21    29.69R
WARROAD        MOSUNNY   64  48  55 SW15      29.70R
CROOKSTON      SUNNY     68  43  40 W16G24    29.74R
FOSSTON        MOSUNNY   66  41  39 SW8G18    29.77R
DETROIT LAKES  SUNNY     64  43  45 SW8       29.81S
MOORHEAD       SUNNY     70  37  30 SW12G18   29.78S
PARK RAPIDS    SUNNY     67  45  45 W13       29.80R
MAHNOMEN       FAIR      65  44  46 W9G17     29.78R
$$
MNZ006-009>011-018-025>026-202000-
   North Central Minnesota

CITY           SKY/WX    TMP DP  RH WIND       PRES   REMARKS
BAUDETTE       SUNNY     66  43  43 W14G22    29.70R
FLAG ISLAND    SUNNY     64  41  42 W15       29.66R
INTL FALLS     MOSUNNY   64  50  60 W10       29.71R
WASKISH        PTSUNNY   64  50  59 SW12      29.75R
BIG FORK       MOSUNNY   64  48  55 W9G17     29.75R
LONGVILLE      SUNNY     66  46  48 W6        29.79R
GRAND RAPIDS   MOSUNNY   66  50  56 W9G18     29.79R
CRANE LAKE     PTSUNNY   63  55  77 SW3       29.73R
ORR            MOSUNNY   66  50  55 W6        29.70S
COOK           MOSUNNY   66  54  63 W10G20    29.74R
WALKER         FAIR      64  44  48 W9        29.79R
$$
MNZ012-019>021-037-202000-
   Northeast Minnesota

CITY           SKY/WX    TMP DP  RH WIND       PRES   REMARKS
DULUTH         MOSUNNY   70  58  65 W12       29.76R
ELY            CLOUDY    64  57  77 W8        29.73R
HIBBING        MOSUNNY   67  52  58 W9        29.75R
EVELETH        PTSUNNY   66  56  70 W9G20     29.76R
DULUTH HARBOR  MOSUNNY   72  63  73 W9        29.74R
TWO HARBORS    SUNNY     73  64  73 W10       29.71R
$$
MNZ029>031-032-039>041-046>048-054>057-064-202000-
   West Central Minnesota

CITY           SKY/WX    TMP DP  RH WIND       PRES   REMARKS
FERGUS FALLS   SUNNY     68  43  40 W13       29.80S
WHEATON        SUNNY     70  36  28 SW12      29.83S
MORRIS         SUNNY     70  45  40 W9        29.81S
ALEXANDRIA     SUNNY     67  43  41 W7        29.84R
ELBOW LAKE     FAIR      66  43  42 NW7       29.81F
WADENA         SUNNY     66  43  42 W10G17    29.81R
GLENWOOD       SUNNY     66  46  48 W13       29.84R
APPLETON       SUNNY     72  41  33 W8G17     29.82S
BENSON         SUNNY     70  43  37 NW10G17   29.84S
ORTONVILLE     SUNNY     70  39  32 NW12      29.82S
MADISON        SUNNY     72  45  37 W9        29.84R
WILLMAR        FAIR      68  48  49 W9        29.85R
$$
MNZ033>034-036-042>043-049>051-058-059-202000-
   Central Minnesota

CITY           SKY/WX    TMP DP  RH WIND       PRES   REMARKS
ST CLOUD       SUNNY     70  50  49 NW10      29.81R
SAUK CENTRE    FAIR      65  46  48 NW12      29.83R
PAYNESVILLE    SUNNY     68  46  45 W13G18    29.83R
AITKIN         SUNNY     66  48  52 W7G18     29.79R
PINE RIVER     SUNNY     63  45  51 NW10      29.83R
BRAINERD       SUNNY     67  46  47 W9G20     29.80R
STAPLES          N/A     66  45  45 NW10      29.81R
LITTLE FALLS   SUNNY     66  37  34 W7        29.80F
LITCHFIELD     SUNNY     70  48  46 W9        29.85R
BUFFALO        SUNNY     70  48  45 W9        29.83R
MAPLE LAKE     SUNNY     71  52  50 NW8       29.83R
HUTCHINSON     SUNNY     70  49  47 W7        29.85R
$$
MNZ037-044-045-052-053-202000-
   East Central Minnesota

CITY           SKY/WX    TMP DP  RH WIND       PRES   REMARKS
PRINCETON      SUNNY     73  52  46 W10G16    29.80S
MORA           SUNNY     70  52  52 W8        29.81R
RUSH CITY      MOSUNNY   72  56  55 W7        29.79S
MOOSE LAKE     SUNNY     72  52  49 W8        29.76R
HINCKLEY       FAIR      72  55  56 W8        29.79S
CLOQUET        MOSUNNY   70  54  56 W9        29.77R
MCGREGOR       SUNNY     68  50  52 SW13G18   29.79R
$$
MNZ071>073-080-081-089-090-097-098-202000-
   Southwest Minnesota

CITY           SKY/WX    TMP DP  RH WIND       PRES   REMARKS
MONTEVIDEO     SUNNY     72  48  43 N5        29.84S
GRANITE FALLS  SUNNY     70  50  49 W6        29.87R
CANBY          SUNNY     70  44  38 NW7       29.85S
MARSHALL       SUNNY     68  46  45 W8        29.85S
REDWOOD FALLS  SUNNY     70  45  40 W12       29.85R
OLIVIA         SUNNY     70  48  46 W7        29.86R
PIPESTONE      SUNNY     66  46  48 W6        29.88R
WORTHINGTON    SUNNY     69  50  50 W13       29.87S
JACKSON        SUNNY     70  50  49 NW8G16    29.86S
TRACY          SUNNY     69  51  52 NW8       29.87R
SLAYTON        SUNNY     68  47  45 W12       29.88R
$$
MNZ065>067-074>077-082>085-091>093-202000-
   South Central Minnesota

CITY           SKY/WX    TMP DP  RH WIND       PRES   REMARKS
MANKATO        SUNNY     70  54  56 NW8G22    29.84R
NEW ULM        SUNNY     70  46  43 W12       29.84S
ST JAMES       SUNNY     70  48  46 NW9         N/A
FAIRMONT       SUNNY     73  52  47 NW14      29.85R
GLENCOE        SUNNY     71  55  56 W8G17     29.83R
FARIBAULT      SUNNY     73  57  56 NW9       29.83R
OWATONNA       SUNNY     73  55  53 W10G16    29.83R
WASECA         SUNNY     72  54  53 NW8G16    29.85R
ALBERT LEA     SUNNY     77  57  50 NW7       29.83R
$$
MNZ078>079-086>088-094>096-202000-
   Southeast Minnesota

CITY           SKY/WX    TMP DP  RH WIND       PRES   REMARKS
ROCHESTER      PTSUNNY   74  61  63 NW9       29.82R
RED WING       PTSUNNY   75  55  50 W7        29.78S
STANTON        SUNNY     74  57  55 NW5       29.80R
DODGE CENTER   SUNNY     73  57  56 NW10      29.82R
WINONA         MOSUNNY   82  68  61 SW5       29.77S
AUSTIN         MOSUNNY   75  59  57 NW13      29.81R
PRESTON        PTSUNNY   81  67  61 W5        29.80S
$$
ABBREVIATIONS USED IN REMARKS
   TC - TEMPERATURES IN CELSIUS
  WCI - WIND CHILL INDEX
   HX - HEAT INDEX
  VSB - VISIBILITY
$$




USA.gov is the U.S. government's official web portal to all federal, state and local government web resources and services.